Whiteman AFB, MO

12:22 PM CST on December 06, 2019 (GMT -0600)
Whiteman Air Force Base

Weather History for KSZL - October, 2019

Change the Weather History Date:

Thursday, October 3, 2019

  Actual Average Record
Temperature  
Mean Temperature 61 °F -  
Max Temperature 64 °F 70 °F 95 °F (2006)
Min Temperature 52 °F 49 °F 36 °F (2010)
Degree Days  
Heating Degree Days 4    
Growing Degree Days 11 (Base 50)    
Moisture  
Dew Point 55 °F    
Average Humidity 94    
Maximum Humidity 100    
Minimum Humidity 77    
Precipitation  
Precipitation 0.13 in - - ()
Sea Level Pressure  
Sea Level Pressure 30.15 in    
Wind  
Wind Speed 10 mph (North)    
Max Wind Speed 15 mph    
Max Gust Speed 21 mph    
Visibility 9 miles    
Events Rain    
Averages and records for this station are not official NWS values.
T = Trace of Precipitation, MM = Missing Value Source: NWS Daily Summary

Daily Weather History Graph

Daily Weather History Graph

Search for Another Location

Airport or City:

Astronomy

Oct. 03, 2019 Rise Set
Actual Time 7:11 AM CDT 6:54 PM CDT
Civil Twilight 6:45 AM CDT 7:20 PM CDT
Nautical Twilight 6:14 AM CDT 7:51 PM CDT
Astronomical Twilight 5:43 AM CDT 8:22 PM CDT
Moon 12:40 PM CDT (10/3) 10:37 PM CDT (10/3)
Length of Visible Light 12h 35m
Length of Day
11h 42m
Waxing Crescent, 30% of the Moon is Illuminated
Oct 3
Waxing Crescent
Oct 5
First Quarter
Oct 13
Full
Oct 21
Last Quarter
Oct 27
New

Hourly Weather History & Observations

Time (CDT) Temp. Dew Point Humidity Pressure Visibility Wind Dir Wind Speed Gust Speed Precip Events Conditions
12:09 AM 69.8 °F 69.8 °F 100% 29.95 in 10.0 mi NW 13.8 mph 18.4 mph N/A   Light Drizzle
12:56 AM 64.2 °F 64.2 °F 100% 29.95 in 3.0 mi North 4.6 mph - 0.08 in Rain Heavy Rain
1:56 AM 61.3 °F 61.3 °F 100% 30.01 in 10.0 mi NW 15.0 mph - 0.04 in Rain Light Rain
2:56 AM 59.7 °F 59.7 °F 100% 30.01 in 5.0 mi NNW 12.7 mph - 0.01 in Rain Light Rain
3:56 AM 58.1 °F 58.1 °F 100% 30.04 in 6.0 mi NNW 12.7 mph 20.7 mph 0.00 in   Overcast
4:56 AM 57.0 °F 57.0 °F 100% 30.07 in 10.0 mi NNW 9.2 mph - N/A   Overcast
5:56 AM 55.6 °F 55.6 °F 100% 30.09 in 10.0 mi NW 11.5 mph - N/A   Overcast
6:31 AM 55.4 °F 55.4 °F 100% 30.13 in 6.0 mi NW 9.2 mph - N/A   Light Drizzle
6:56 AM 55.0 °F 54.7 °F 99% 30.14 in 10.0 mi NNW 5.8 mph - 0.00 in   Mostly Cloudy
9:56 AM 55.4 °F 52.2 °F 89% 30.18 in 10.0 mi North 9.2 mph - N/A   Overcast
10:22 AM 55.4 °F 51.8 °F 88% 30.19 in 6.0 mi NNW 9.2 mph - N/A Rain Light Rain
10:41 AM 55.4 °F 51.8 °F 88% 30.21 in 10.0 mi NNW 12.7 mph - N/A   Overcast
11:10 AM 53.6 °F 51.8 °F 94% 30.21 in 10.0 mi North 9.2 mph - N/A   Light Drizzle
12:56 PM 56.7 °F 51.3 °F 82% 30.22 in 10.0 mi NNW 9.2 mph - N/A   Mostly Cloudy
1:56 PM 59.7 °F 52.5 °F 77% 30.21 in 10.0 mi North 9.2 mph - N/A   Mostly Cloudy
5:56 PM 57.4 °F 50.2 °F 77% 30.23 in 10.0 mi NNE 10.4 mph - N/A   Mostly Cloudy
6:56 PM 55.4 °F 50.4 °F 83% 30.23 in 10.0 mi North 6.9 mph - N/A   Overcast
7:56 PM 54.0 °F 52.5 °F 95% 30.24 in 10.0 mi NNE 5.8 mph - N/A   Mostly Cloudy
8:56 PM 54.1 °F 52.7 °F 95% 30.25 in 5.0 mi NE 4.6 mph - N/A   Mostly Cloudy
9:56 PM 54.1 °F 53.8 °F 99% 30.27 in 10.0 mi Calm Calm - N/A   Overcast
10:58 PM 54.1 °F 54.1 °F 100% 30.28 in 10.0 mi NNE 3.5 mph - N/A   Overcast
11:54 PM 52.3 °F 52.3 °F 100% 30.28 in 10.0 mi NNE 4.6 mph - N/A   Mostly Cloudy